Regional Weather Roundup
Issued by NWS

Home | Current Version | Previous Version | Graphics & Text | Print | Product List | Glossary On
Versions: 1 2 3 4 5 6 7 8 9 10 11 12 13 14 15 16 17 18 19 20 21 22 23 24 25 26 27 28 29 30 31 32 33 34 35 36 37 38 39 40 41 42 43 44 45 46 47 48 49 50
000
ASUS43 KLOT 290508
RWRIL

ILLINOIS REGIONAL WEATHER ROUNDUP
NATIONAL WEATHER SERVICE CHICAGO/ROMEOVILLE IL
1200 AM CDT SUN MAY 29 2016

NOTE: "FAIR" INDICATES FEW OR NO CLOUDS BELOW 12,000 FEET WITH NO
SIGNIFICANT WEATHER AND/OR OBSTRUCTIONS TO VISIBILITY.

* THESE STATIONS ARE NOT UNDER NWS QUALITY CONTROL. THEY ALSO MAY NOT
  REPORT WEATHER SUCH AS PRECIPITATION OR FOG.

ILZ001-002-007-009-015-016-024-290600-
NORTHWEST ILLINOIS

CITY           SKY/WX    TMP DP  RH WIND       PRES   REMARKS
MOLINE         CLOUDY    70  59  68 S6        29.94R
STERLING*      CLOUDY    70  65  84 CALM      29.95R
SAVANNA*       MOCLDY    69  60  72 SW9       29.93R
$$

ILZ003-004-008-010-011-017-018-290600-
NORTH CENTRAL ILLINOIS

CITY           SKY/WX    TMP DP  RH WIND       PRES   REMARKS
ROCKFORD       CLOUDY    69  65  86 S6        29.96R
FREEPORT*      CLOUDY    66  62  85 S8        29.96R
ROCHELLE*      CLOUDY    68  64  87 S9        29.96R
DE KALB*       CLOUDY    65  64  94 S9        29.98R
$$

ILZ005-006-012>014-019>023-290600-
NORTHEAST ILLINOIS

CITY           SKY/WX    TMP DP  RH WIND       PRES   REMARKS
CHICAGO-OHARE  CLOUDY    66  63  90 S6        29.96R
CHICAGO-MIDWAY MOCLDY    72  59  63 NW3       29.97R
AURORA         CLOUDY    67  61  81 S10       29.98R
LANSING*       CLOUDY    72  64  76 SW8       29.98S
JOLIET*        MOCLDY    70  58  65 CALM      30.00R
WAUKEGAN       CLOUDY    64  62  93 S5        29.94F
DUPAGE AIRPORT CLOUDY    65  62  90 S5        29.97R
KANKAKEE*      CLOUDY    66  57  73 SW18G26   30.02R
WHEELING       MOCLDY    67  63  87 S5        29.97R
MORRIS*        LGT RAIN  67  58  73 SW17G25   29.98R
ROMEOVILLE*    CLOUDY    69  55  60 S10       30.00R
NORTHERLY ISL    N/A     71  58  63 NW5         N/A
NORTHERLY ISL    N/A     71  58  63 NW5         N/A
$$

LMZ740>746-290600-
SOUTHERN LAKE MICHIGAN

STATION/POSITION SKY/WX   TEMP    WIND        PRES    VSBY  WAVE
                          AIR SEA DIR/SP/G                  HT/PER
                          (F)     (DEG/KT/KT) (MB)    (MI)  (FT/S)
SOUTHERN BUOY              57 50  220/ 10/ 12 1014.8R         1/ 4
WILMETTE HARBOR            60 51  220/  6/  6   N/A           1/ 3
HARRISON CRIB              75     230/ 11/ 13   N/A
BURNHAM HARBOR             71     270/  4/ 13   N/A
CALUMET HARBOR             76     180/ 10/ 13 1013.8R
BURNS HARBOR               74     190/ 13/ 18 1015.2R
MICHIGAN CITY              75     150/ 16/ 19   N/A
MICHIGAN CITY 6N           67 57  200/  8/ 12   N/A           1/ 2
ST. JOSEPH                 69 61  180/ 12/ 17   N/A           2/ 3
$$

ILZ025>027-034>036-040-047-049-050-058-095>099-290600-
WEST-CENTRAL ILLINOIS

CITY           SKY/WX    TMP DP  RH WIND       PRES   REMARKS
QUINCY         CLEAR     67  60  78 SW5       29.99R
GALESBURG*     CLOUDY    67  62  84 SW5       29.97R
MACOMB*        MOCLDY    69  62  77 W9        30.00R
JACKSONVILLE*  MOCLDY    71  66  85 SW3       29.99R
PITTSFIELD*    PTCLDY    70  64  82 SW5       30.01R
$$

ILZ028>032-037-038-041>044-048-051>054-059>061-290600-
CENTRAL ILLINOIS

CITY           SKY/WX    TMP DP  RH WIND       PRES   REMARKS
PONTIAC        CLOUDY    67  62  84 SW13G20   30.00F
BLOOMINGTON    TSTM      64  64 100 S13       30.03F VSB 1
DECATUR        PTCLDY    73  66  78 S10       30.01R
PEORIA         CLOUDY    65  62  90 S5        29.98R
LACON*         CLOUDY    66  62  86 S3        29.97S
LINCOLN*       CLOUDY    66  65  97 CALM      29.99S
SPRINGFIELD    MOCLDY    76  67  73 SW3       30.00R
TAYLORVILLE    CLOUDY    72  67  85 S9        30.00R
$$

ILZ033-039-045-046-055>057-062-063-290600-
EAST-CENTRAL ILLINOIS

CITY           SKY/WX    TMP DP  RH WIND       PRES   REMARKS
CHAMPAIGN      CLEAR     69  65  86 S6        30.03R
RANTOUL*       CLOUDY    69  61  75 NW15      30.05R
MATTOON        CLEAR     72  65  78 SW7       30.02R
PARIS*         MOCLDY    71  67  88 S6        30.03R
$$

ILZ079-100>102-290600-
SOUTHWEST ILLINOIS

CITY           SKY/WX    TMP DP  RH WIND       PRES   REMARKS
ALTON          CLOUDY    71  66  83 W9        29.98S
CAHOKIA*       CLOUDY    74  61  63 VRB6      29.99R
SPARTA*        CLEAR     72  67  84 S7        30.02F
$$

ILZ064>066-069>071-074>076-080>082-084>086-088>090-092>094-290600-
SOUTH-CENTRAL ILLINOIS

CITY           SKY/WX    TMP DP  RH WIND       PRES   REMARKS
CARBONDALE     CLEAR     67  65  93 SE6       30.02F
CAIRO*         PTCLDY    70  68  93 S3        30.04S
EFFINGHAM*     CLEAR     72  68  86 S6        30.04R
MARION         CLEAR     70  68  94 CALM      30.04F
MT. VERNON     CLEAR     68  63  83 SW6       30.03F
CENTRALIA*     PTCLDY    73  69  89 S10       30.00S
SALEM*         CLEAR     74  68  81 S7        30.02R
METROPOLIS*    CLEAR     72  68  87 CALM      30.06R
$$

ILZ067-068-072-073-078-083-087-091-290600-
SOUTHEAST ILLINOIS

CITY           SKY/WX    TMP DP  RH WIND       PRES   REMARKS
LAWRENCEVILLE  PTCLDY    71  68  90 S9        30.04S
FLORA*         PTCLDY    71  67  89 S7        30.02F
FAIRFIELD*     CLEAR     70  67  90 S5        30.02F
HARRISBURG*    CLEAR     70  68  93 CALM      30.05S
ROBINSON*      PTCLDY    68  65  92 S7        30.04S
CARMI*         CLEAR     68  67  98 CALM      30.05R
$$

ABBREVIATIONS USED IN REMARKS
   TC - TEMPERATURE IN CELSIUS
  WCI - WIND CHILL INDEX
   HX - HEAT INDEX
  VSB - VISIBILITY
$$





USA.gov is the U.S. government's official web portal to all federal, state and local government web resources and services.